When you browse on this site, cookies collect data to enhance your experience and personalize the content and advertising you see.
Visit our Privacy Policy to learn more. By continuing to use the site, you agree to this use of cookies and data.
  • In United Kingdom
  • List of Countries
  • For 7 days
  • Water Temperature
  • Satellite Maps
  • Weather Map
  • Weather Widgets
  • user-avatar
    Login

    Hourly Weather Naiham

    Today, 17 February, Sunday

    Time Temperature Precipitation Wind Pressure Humidity
    00:00 +20°C° 0.2 mm 0 mps 707 mmHg 97%
    01:00 +19°C° 0 mm 0 mps 707 mmHg 98%
    02:00 +19°C° 0.3 mm 0 mps 707 mmHg 98%
    03:00 +19°C° 0.3 mm 0 mps 707 mmHg 98%
    04:00 +19°C° 0.3 mm 0 mps 707 mmHg 98%
    05:00 +19°C° 2.1 mm 0 mps 707 mmHg 97%
    06:00 +19°C° 2.1 mm 0 mps 707 mmHg 97%
    07:00 +19°C° 2.1 mm 0 mps 707 mmHg 97%
    08:00 +19°C° 3 mm 0 mps 707 mmHg 96%
    09:00 +20°C° 3 mm 0 mps 707 mmHg 96%
    10:00 +20°C° 3 mm 0 mps 707 mmHg 95%
    11:00 +21°C° 1 mm 0 mps 707 mmHg 88%
    12:00 +23°C° 1 mm 0 mps 707 mmHg 82%
    13:00 +26°C° 1 mm 1 mps 706 mmHg 75%
    14:00 +26°C° 2 mm 1 mps 705 mmHg 79%
    15:00 +23°C° 2 mm 0 mps 705 mmHg 83%
    16:00 +23°C° 2 mm 0 mps 704 mmHg 87%
    17:00 +21°C° 1.6 mm 0 mps 704 mmHg 89%
    18:00 +20°C° 1.6 mm 0 mps 705 mmHg 92%
    19:00 +19°C° 1.6 mm 0 mps 705 mmHg 94%
    20:00 +18°C° 0.4 mm 0 mps 705 mmHg 95%
    21:00 +18°C° 0.4 mm 0 mps 705 mmHg 96%
    22:00 +17°C° 0.4 mm 0 mps 706 mmHg 97%
    23:00 +17°C° 0.1 mm 0 mps 705 mmHg 97%

    Tomorrow, 18 February, Monday

    Time Temperature Precipitation Wind Pressure Humidity
    00:00 +17°C° 0.1 mm 0 mps 705 mmHg 98%
    01:00 +17°C° 0.1 mm 0 mps 705 mmHg 98%
    02:00 +17°C° 0 mm 0 mps 705 mmHg 97%
    03:00 +17°C° 0 mm 0 mps 704 mmHg 97%
    04:00 +16°C° 0 mm 0 mps 704 mmHg 97%
    05:00 +16°C° 0 mm 0 mps 704 mmHg 96%
    06:00 +16°C° 0 mm 0 mps 705 mmHg 96%
    07:00 +18°C° 0 mm 1 mps 705 mmHg 95%
    08:00 +21°C° 0 mm 1 mps 706 mmHg 82%
    09:00 +24°C° 0 mm 1 mps 706 mmHg 69%
    10:00 +28°C° 0 mm 1 mps 707 mmHg 55%
    11:00 +29°C° 0 mm 1 mps 706 mmHg 47%
    12:00 +31°C° 0 mm 2 mps 706 mmHg 39%
    13:00 +32°C° 0 mm 2 mps 705 mmHg 31%
    14:00 +31°C° 0 mm 1 mps 704 mmHg 37%
    15:00 +29°C° 0 mm 1 mps 704 mmHg 43%
    16:00 +26°C° 0 mm 0 mps 703 mmHg 50%
    17:00 +25°C° 0 mm 0 mps 703 mmHg 54%
    18:00 +23°C° 0 mm 0 mps 704 mmHg 58%
    19:00 +22°C° 0 mm 0 mps 704 mmHg 63%
    20:00 +21°C° 0 mm 0 mps 704 mmHg 65%
    21:00 +22°C° 0 mm 1 mps 705 mmHg 68%
    22:00 +21°C° 0 mm 1 mps 705 mmHg 71%
    23:00 +20°C° 0 mm 1 mps 705 mmHg 71%

    Day after tomorrow, 19 February, Tuesday

    Time Temperature Precipitation Wind Pressure Humidity
    00:00 +20°C° 0 mm 1 mps 705 mmHg 71%
    01:00 +19°C° 0 mm 1 mps 705 mmHg 72%
    02:00 +19°C° 0 mm 1 mps 704 mmHg 73%
    03:00 +19°C° 0 mm 1 mps 704 mmHg 73%
    04:00 +18°C° 0 mm 1 mps 704 mmHg 74%
    05:00 +18°C° 0 mm 1 mps 705 mmHg 75%
    06:00 +18°C° 0 mm 1 mps 705 mmHg 75%
    07:00 +18°C° 0 mm 1 mps 706 mmHg 75%
    08:00 +22°C° 0 mm 1 mps 707 mmHg 64%
    09:00 +26°C° 0 mm 1 mps 708 mmHg 52%
    10:00 +29°C° 0 mm 1 mps 709 mmHg 40%
    11:00 +31°C° 0 mm 1 mps 708 mmHg 36%
    12:00 +32°C° 0 mm 2 mps 707 mmHg 32%
    13:00 +34°C° 0 mm 2 mps 707 mmHg 28%
    14:00 +34°C° 0 mm 2 mps 706 mmHg 28%
    15:00 +33°C° 0 mm 1 mps 706 mmHg 29%
    16:00 +33°C° 0 mm 1 mps 705 mmHg 29%
    17:00 +30°C° 0 mm 1 mps 705 mmHg 38%
    18:00 +27°C° 0 mm 1 mps 706 mmHg 46%
    19:00 +22°C° 0 mm 0 mps 706 mmHg 55%
    20:00 +23°C° 0 mm 1 mps 706 mmHg 58%
    21:00 +22°C° 0 mm 1 mps 707 mmHg 61%
    22:00 +22°C° 0 mm 1 mps 708 mmHg 64%
    23:00 +21°C° 0 mm 1 mps 707 mmHg 65%

    20 February, Wednesday

    Time Temperature Precipitation Wind Pressure Humidity
    00:00 +21°C° 0 mm 1 mps 707 mmHg 66%
    01:00 +20°C° 0 mm 1 mps 707 mmHg 67%
    02:00 +20°C° 0 mm 1 mps 707 mmHg 69%
    03:00 +20°C° 0 mm 1 mps 706 mmHg 70%
    04:00 +19°C° 0 mm 1 mps 706 mmHg 71%
    05:00 +19°C° 0 mm 1 mps 707 mmHg 72%
    06:00 +19°C° 0 mm 1 mps 707 mmHg 73%
    07:00 +19°C° 0 mm 1 mps 708 mmHg 74%
    08:00 +23°C° 0 mm 1 mps 708 mmHg 64%
    09:00 +27°C° 0 mm 1 mps 709 mmHg 53%
    10:00 +29°C° 0 mm 0 mps 710 mmHg 42%
    11:00 +32°C° 0 mm 1 mps 709 mmHg 38%
    12:00 +33°C° 0 mm 1 mps 708 mmHg 34%
    13:00 +34°C° 0 mm 1 mps 708 mmHg 30%
    14:00 +32°C° 0 mm 1 mps 707 mmHg 37%
    15:00 +30°C° 0 mm 1 mps 706 mmHg 44%
    16:00 +27°C° 0 mm 0 mps 705 mmHg 50%
    17:00 +26°C° 0 mm 0 mps 706 mmHg 54%
    18:00 +25°C° 0 mm 0 mps 706 mmHg 59%
    19:00 +23°C° 0 mm 0 mps 707 mmHg 63%
    20:00 +22°C° 0 mm 0 mps 707 mmHg 69%
    21:00 +21°C° 0 mm 0 mps 708 mmHg 75%
    22:00 +20°C° 0 mm 0 mps 708 mmHg 81%
    23:00 +20°C° 0 mm 0 mps 708 mmHg 82%

    21 February, Thursday

    Time Temperature Precipitation Wind Pressure Humidity
    00:00 +19°C° 0 mm 0 mps 708 mmHg 82%
    01:00 +19°C° 0 mm 0 mps 707 mmHg 83%
    02:00 +20°C° 0 mm 1 mps 707 mmHg 81%
    03:00 +20°C° 0 mm 1 mps 707 mmHg 79%
    04:00 +20°C° 0 mm 1 mps 707 mmHg 77%
    05:00 +20°C° 0 mm 1 mps 707 mmHg 76%
    06:00 +20°C° 0 mm 1 mps 708 mmHg 74%
    07:00 +20°C° 0 mm 1 mps 708 mmHg 73%
    08:00 +23°C° 0 mm 1 mps 709 mmHg 61%
    09:00 +27°C° 0 mm 1 mps 710 mmHg 50%
    10:00 +31°C° 0 mm 1 mps 710 mmHg 39%
    11:00 +33°C° 0 mm 1 mps 710 mmHg 34%
    12:00 +34°C° 0 mm 1 mps 709 mmHg 29%
    13:00 +35°C° 0 mm 1 mps 708 mmHg 24%
    14:00 +35°C° 0 mm 1 mps 707 mmHg 24%
    15:00 +35°C° 0 mm 1 mps 707 mmHg 24%
    16:00 +35°C° 0 mm 1 mps 706 mmHg 23%
    17:00 +30°C° 0 mm 0 mps 706 mmHg 34%
    18:00 +26°C° 0 mm 0 mps 706 mmHg 45%
    19:00 +23°C° 0 mm 0 mps 706 mmHg 56%
    20:00 +22°C° 0 mm 0 mps 707 mmHg 64%
    21:00 +21°C° 0 mm 0 mps 707 mmHg 72%
    22:00 +20°C° 0 mm 0 mps 708 mmHg 80%
    23:00 +20°C° 0 mm 0 mps 708 mmHg 83%

    22 February, Friday

    Time Temperature Precipitation Wind Pressure Humidity
    00:00 +20°C° 0 mm 0 mps 707 mmHg 86%
    01:00 +19°C° 0 mm 0 mps 707 mmHg 90%
    02:00 +19°C° 0 mm 0 mps 707 mmHg 89%
    03:00 +19°C° 0 mm 0 mps 707 mmHg 89%
    04:00 +18°C° 0 mm 0 mps 706 mmHg 89%
    05:00 +18°C° 0 mm 0 mps 707 mmHg 89%
    06:00 +18°C° 0 mm 0 mps 707 mmHg 88%
    07:00 +18°C° 0 mm 0 mps 708 mmHg 88%
    08:00 +21°C° 0 mm 0 mps 708 mmHg 78%
    09:00 +24°C° 0 mm 0 mps 709 mmHg 68%
    10:00 +27°C° 0 mm 0 mps 709 mmHg 57%
    11:00 +31°C° 0 mm 1 mps 709 mmHg 51%
    12:00 +32°C° 0 mm 1 mps 708 mmHg 44%
    13:00 +34°C° 0 mm 1 mps 707 mmHg 38%
    14:00 +32°C° 0.5 mm 1 mps 706 mmHg 45%
    15:00 +31°C° 0.5 mm 1 mps 706 mmHg 52%
    16:00 +29°C° 0.5 mm 2 mps 705 mmHg 59%
    17:00 +28°C° 0.7 mm 2 mps 705 mmHg 71%
    18:00 +26°C° 0.7 mm 1 mps 705 mmHg 82%
    19:00 +24°C° 0.7 mm 1 mps 706 mmHg 93%
    20:00 +24°C° 0.2 mm 1 mps 706 mmHg 95%
    21:00 +23°C° 0.2 mm 1 mps 706 mmHg 96%
    22:00 +21°C° 0.2 mm 0 mps 707 mmHg 97%
    23:00 +21°C° 0 mm 0 mps 706 mmHg 97%
    Show more